Regional Weather Roundup
Issued by NWS

Home | Current Version | Previous Version | Graphics & Text | Print | Product List | Glossary On
Versions: 1 2 3 4 5 6 7 8 9 10 11 12 13 14 15 16 17 18 19 20 21 22 23 24 25 26 27 28 29 30 31 32 33 34 35 36 37 38 39 40 41 42 43 44 45 46 47 48 49 50
000
ASUS43 KOAX 291810
RWRNE

WEATHER ROUNDUP FOR NEBRASKA
NATIONAL WEATHER SERVICE OMAHA NE
100 PM CDT FRI AUG 29 2014

NOTES: SATELLITE DATA IS BEING USED TO AUGMENT CLOUD COVER ABOVE
       12000 FEET.
       "FAIR" INDICATES FEW OR NO CLOUDS BELOW 12,000 FEET WITH NO
       SIGNIFICANT WEATHER AND/OR OBSTRUCTIONS TO VISIBILITY.

  * THESE STATIONS DO NOT REPORT WEATHER SUCH AS RAIN...SNOW OR FOG.

NEZ001>004-019>022-054>056-291900-
NEBRASKA PANHANDLE

CITY           SKY/WX    TMP DP  RH WIND       PRES   REMARKS
SCOTTSBLUFF    MOSUNNY   79  54  41 N20       30.04R
6HR MIN TEMP:  50; 6HR MAX TEMP:  79; 6HR PCP: TRACE;

ALLIANCE       MOSUNNY   79  52  38 N14G23    30.00S
6HR MIN TEMP:  49; 6HR MAX TEMP:  79;

CHADRON        PTSUNNY   75  55  49 NE18G28   30.00F
6HR MIN TEMP:  53; 6HR MAX TEMP:  78;

KIMBALL        MOSUNNY   73  51  47 NW15G21   30.07S
SIDNEY         SUNNY     83  45  26 NW12G18   30.03F
6HR MIN TEMP:  53; 6HR MAX TEMP:  83;

$$

NEZ057>060-069>072-079>082-291900-
SOUTHWEST NEBRASKA

CITY           SKY/WX    TMP DP  RH WIND       PRES   REMARKS
NORTH PLATTE   SUNNY     81  58  45 VRB3      29.89F
6HR MIN TEMP:  52; 6HR MAX TEMP:  82;

IMPERIAL       SUNNY     81  54  39 NW14      29.94F
6HR MIN TEMP:  56; 6HR MAX TEMP:  81;

LEXINGTON      SUNNY     78  64  62 NW7       29.88F
MCCOOK         SUNNY     81  55  40 N5        29.91F
6HR MIN TEMP:  57; 6HR MAX TEMP:  82;

OGALLALA       SUNNY     81  53  37 NW12G17   29.94F
$$

NEZ005>010-023>029-035>040-094-291900-
NORTH CENTRAL NEBRASKA

CITY           SKY/WX    TMP DP  RH WIND       PRES   REMARKS
VALENTINE      SUNNY     82  59  45 NW16      29.88S
6HR MIN TEMP:  56; 6HR MAX TEMP:  82;

AINSWORTH      SUNNY     78  60  55 N12       29.88F
BROKEN BOW     SUNNY     80  59  48 N14G23    29.87S
6HR MIN TEMP:  58; 6HR MAX TEMP:  80;

O`NEILL        CLOUDY    73  68  85 N6        29.84F
ORD            PTSUNNY   77  65  66 NW7       29.83F
6HR MIN TEMP:  60; 6HR MAX TEMP:  78;

THEDFORD       SUNNY     82  55  38 N13G24    29.90F
$$

NEZ041-046>049-061>064-073>077-083>087-291900-
SOUTH CENTRAL NEBRASKA

CITY           SKY/WX    TMP DP  RH WIND       PRES   REMARKS
GRAND ISLAND   CLOUDY    72  65  78 CALM      29.86F
6HR MIN TEMP:  65; 6HR MAX TEMP:  72;

AURORA         CLOUDY    68  67  99 CALM      29.86S
HASTINGS       CLOUDY    74  62  66 N5        29.86F
6HR MIN TEMP:  65; 6HR MAX TEMP:  76;

HEBRON         CLOUDY    71  64  78 CALM      29.85S
HOLDREGE       MOSUNNY   76  62  63 CALM      29.87F
KEARNEY *      MOSUNNY   77  63  61 W6        29.87F
YORK           CLOUDY    64 N/A N/A S3        29.85S
$$

NEZ011>018-030>034-042>045-291900-
NORTHEAST NEBRASKA

CITY           SKY/WX    TMP DP  RH WIND       PRES   REMARKS
NORFOLK        CLOUDY    71  65  81 SE3       29.83F
6HR MIN TEMP:  67; 6HR MAX TEMP:  71;

ALBION         CLOUDY    71  65  81 CALM      29.84F
BLAIR          LGT RAIN  74  69  86 S6        29.82F
FREMONT        CLOUDY    75  68  78 S5        29.82F
TEKAMAH        CLOUDY    75  70  84 S7        29.81F
6HR MIN TEMP:  71; 6HR MAX TEMP:  75; 6HR PCP:  0.02;

WAYNE          RAIN      69  67  94 S6        29.83F
$$

NEZ050>053-065>068-078-088>093-291900-
SOUTHEAST NEBRASKA

CITY           SKY/WX    TMP DP  RH WIND       PRES   REMARKS
LINCOLN        CLOUDY    73  68  84 SW6       29.83F
6HR MIN TEMP:  70; 6HR MAX TEMP:  74; 6HR PCP: TRACE;

OMAHA EPPLEY   LGT RAIN  73  68  84 S5        29.82F
6HR MIN TEMP:  71; 6HR MAX TEMP:  74; 6HR PCP:  0.04;

BEATRICE       CLOUDY    73  68  82 W8        29.84S
FALLS CITY     CLOUDY    75  68  78 S7        29.83F
6HR MIN TEMP:  69; 6HR MAX TEMP:  76; 6HR PCP:  0.09;

NEBRASKA CITY  CLOUDY    71  71 100 SW5       29.84S
PLATTSMOUTH    LGT RAIN  72  69  89 SW3       29.83F
$$

NEZ044-045-051>053-067-291900-
OMAHA AREA

CITY           SKY/WX    TMP DP  RH WIND       PRES   REMARKS
OMAHA EPPLEY   LGT RAIN  73  68  84 S5        29.82F
6HR MIN TEMP:  71; 6HR MAX TEMP:  74; 6HR PCP:  0.04;

BLAIR          LGT RAIN  74  69  86 S6        29.82F
FREMONT        CLOUDY    75  68  78 S5        29.82F
MILLARD        DRIZZLE   74  70  86 SE3       29.81F
OFFUTT AFB     LGT RAIN  72  72  99 SW5       29.82F
PLATTSMOUTH    LGT RAIN  72  69  89 SW3       29.83F
WAHOO          CLOUDY    74  68  81 S6        29.82F
$$



USA.gov is the U.S. government's official web portal to all federal, state and local government web resources and services.